Temperature
18 18 19 19 19 18 16 16 15 14 12 10 10 10 10 9 9 9 9 9 10 10 10 11 12 12 12 13 12 13 14 14 14 15 15 15 15 14 13 13 13 12 12 11
18 19 19 18 19 18 16 13 13 11 10 9 9 8 8 8 8 8 8 8 9 9 9 9 10 10 11 11 11 11 12 12 13 14 14 15 15 14 13 13 12 12 12 11
17 17 18 18 15 15 12 10 10 10 9 9 8 6 6 6 7 7 7 8 8 9 9 10 10 10 10 10 10 11 11 12 12 13 14 15 15 14 13 13 12 12 12 11
15 17 17 14 13 12 10 9 9 9 8 7 6 6 8 8 8 9 9 9 9 10 10 10 10 10 10 9 10 10 10 11 12 12 12 12 13 14 13 13 13 12 12 11
15 16 16 14 13 12 11 9 9 8 8 8 9 8 8 10 10 10 10 10 10 10 10 10 10 10 10 9 9 10 10 10 11 11 11 11 11 12 12 13 12 12 12 12
15 16 15 12 12 12 12 10 10 9 9 10 9 8 10 11 11 11 11 10 10 10 10 10 10 10 9 9 9 9 9 9 9 10 10 10 10 10 11 12 12 12 12 12
14 15 11 11 11 12 10 10 11 11 10 10 9 9 10 9 10 10 10 10 10 10 10 10 10 10 9 9 9 9 9 9 9 9 9 9 9 9 10 10 10 11 12 12
12 12 10 11 10 9 10 11 11 10 10 9 9 9 9 9 9 9 9 9 9 9 9 9 9 9 9 9 9 9 9 9 9 9 9 8 8 9 9 9 9 10 11 11
10 10 10 11 10 11 11 10 10 10 10 9 9 9 8 8 8 8 8 8 8 8 9 9 9 9 9 9 9 9 8 8 9 9 9 8 8 8 9 9 9 10 10 11
9 9 11 11 11 11 11 10 10 9 9 9 8 8 8 8 7 7 7 7 7 7 7 8 8 8 9 9 9 8 8 8 8 9 9 8 7 8 8 8 8 9 10 11
9 10 10 11 11 10 10 9 9 9 9 8 8 7 7 7 7 6 6 6 6 5 5 6 6 7 8 8 8 8 8 8 8 8 8 8 7 7 7 8 8 9 9 10
9 10 9 10 10 9 9 9 9 8 8 8 7 7 7 6 6 6 5 5 5 4 4 4 5 5 5 5 5 5 6 6 7 8 8 7 7 7 7 7 7 8 8 8
11 10 10 9 9 9 9 9 8 8 7 7 7 6 6 5 5 4 4 4 3 3 3 3 3 3 3 3 3 4 4 6 7 7 7 7 7 7 6 6 7 7 7 8
10 9 8 9 9 9 8 8 7 7 7 6 6 6 6 5 4 3 3 3 3 3 3 3 3 2 2 2 3 3 4 5 6 7 7 7 6 6 6 6 6 7 8 9
9 9 9 8 8 8 8 7 6 6 6 5 5 5 4 3 3 3 3 3 3 3 3 3 3 3 2 2 2 3 3 5 6 6 6 6 6 6 6 6 6 8 9 9
9 8 8 8 8 7 6 6 6 5 5 5 5 4 4 3 3 3 3 3 3 3 3 3 3 3 2 2 2 3 3 5 5 5 6 6 6 6 6 6 7 7 9 9
8 7 8 7 7 6 6 6 5 5 4 4 4 4 3 3 3 3 3 3 3 2 2 2 2 2 2 1 2 3 3 4 4 4 5 5 6 5 6 6 6 8 9 10
8 8 8 7 6 6 6 5 4 4 4 3 3 4 3 3 3 3 3 3 3 2 2 2 2 2 2 2 2 2 3 3 3 4 4 5 5 6 6 6 7 8 9 10
8 7 7 7 6 5 5 4 4 4 4 4 4 3 3 3 3 3 3 3 3 2 3 3 2 2 2 2 2 3 2 3 3 3 4 5 6 6 6 7 7 8 9 9
7 7 6 6 5 5 4 4 4 4 5 5 5 4 3 3 3 3 4 4 4 3 3 3 4 3 2 2 2 3 3 3 3 4 5 6 6 6 6 7 8 8 9 9
7 6 6 5 5 5 4 4 4 4 5 5 4 3 3 3 3 3 4 4 4 4 3 4 4 4 4 3 3 3 3 4 4 5 6 6 6 6 6 7 8 9 10 10
6 6 5 5 4 4 4 4 4 5 5 5 4 3 3 3 3 3 4 4 4 4 4 4 4 4 5 5 5 5 5 5 6 6 6 6 6 6 7 8 9 10 11 12
6 5 5 4 4 4 4 4 4 5 4 4 3 2 3 3 3 3 4 5 5 5 4 5 5 5 5 5 5 6 6 6 6 7 7 6 6 7 8 9 10 11 12 12
5 5 4 4 4 4 3 4 4 5 4 4 3 2 3 3 3 4 4 5 5 5 5 6 6 6 6 6 6 6 6 6 7 7 7 7 7 8 9 10 11 12 12 12
5 4 4 4 3 3 3 3 4 5 4 2 2 2 3 3 3 4 4 5 6 6 6 6 6 6 6 6 7 7 7 8 8 8 8 9 9 10 11 11 12 12 12 12
4 4 4 4 3 3 3 3 4 3 2 2 2 2 2 3 4 5 5 6 6 7 7 7 7 7 7 7 7 8 9 10 10 10 11 11 11 11 12 12 12 12 12 12
4 4 4 4 4 3 3 4 4 3 2 2 2 2 2 3 4 5 6 6 7 7 7 7 8 8 8 8 9 10 10 11 11 12 12 12 11 12 12 12 12 12 12 12
Wind_Speed
7 6 3 5 8 4 4 4 4 2 7 8 14 14 12 13 17 20 19 18 18 18 18 16 15 13 10 9 11 9 10 10 11 11 10 10 10 8 7 6 5 3 1 1
4 4 3 6 5 1 3 5 3 8 8 10 12 16 17 15 17 19 19 18 17 18 19 16 14 14 13 10 10 10 9 10 10 9 9 10 11 10 8 7 6 5 3 2
2 3 5 6 8 6 6 8 5 5 8 16 17 19 17 16 17 19 18 18 17 16 15 14 12 13 14 14 12 12 11 10 9 8 8 7 9 9 10 9 8 7 6 5
2 3 1 4 5 10 10 10 10 8 10 10 13 11 12 14 14 15 18 19 17 15 15 15 15 14 13 13 11 12 12 9 7 7 8 6 5 8 10 8 9 9 9 9
2 1 1 4 7 6 4 4 5 6 11 11 14 11 12 15 18 19 18 16 15 16 16 15 14 14 12 12 11 11 12 10 7 7 7 7 6 7 9 8 9 9 9 10
3 3 2 5 13 13 4 0 5 9 15 18 15 14 15 10 11 15 16 15 15 15 14 14 15 11 11 13 11 11 12 11 9 7 7 6 6 6 8 8 9 10 10 10
2 2 3 8 14 10 4 9 15 15 17 19 14 18 20 18 17 17 19 19 19 17 15 16 14 11 14 14 13 13 11 10 11 9 8 7 6 5 6 8 9 9 9 9
5 5 3 9 9 5 7 13 17 17 17 18 19 19 19 19 20 20 20 21 20 17 19 18 14 12 15 15 16 13 11 10 12 10 8 7 7 5 7 9 11 11 9 8
2 0 5 5 3 8 10 14 17 16 16 18 19 20 20 20 20 20 20 20 19 19 21 19 15 14 15 16 14 13 12 12 13 12 8 7 7 6 5 8 10 11 10 10
2 2 6 8 11 11 13 14 15 15 15 16 18 20 20 20 19 19 19 19 21 21 22 21 19 17 18 17 13 12 13 13 12 9 10 8 7 7 6 7 7 9 9 10
2 6 9 9 10 13 12 12 15 16 15 16 18 21 21 21 21 21 20 22 22 20 23 24 21 19 18 14 11 11 12 12 10 7 9 9 9 7 6 5 5 7 9 12
4 8 7 12 13 11 11 13 15 16 17 18 19 20 22 21 21 22 22 23 22 24 26 25 24 21 16 12 11 12 12 10 9 7 6 8 8 6 8 10 11 6 7 15
6 8 9 14 11 9 11 15 17 18 19 20 19 21 23 24 23 27 27 26 26 27 27 25 22 19 15 16 18 16 12 11 10 7 7 8 7 5 4 6 8 12 19 21
9 8 10 9 11 14 15 17 18 20 19 19 20 23 25 26 26 25 26 28 27 27 26 24 22 20 17 15 13 12 12 13 10 7 7 7 6 6 5 7 3 5 10 14
10 11 14 15 14 15 16 18 19 19 20 22 24 25 24 26 26 27 28 28 27 26 25 24 22 19 15 13 16 15 14 10 9 6 7 7 6 6 6 7 6 5 6 5
11 11 12 13 16 17 17 18 18 21 23 25 25 23 24 26 26 27 26 26 24 23 23 21 19 18 14 11 14 12 11 11 8 5 6 6 6 6 6 5 7 6 10 10
10 12 14 16 17 17 17 18 20 23 24 25 25 25 25 26 25 25 25 24 21 19 18 17 17 13 9 11 10 4 5 6 7 6 6 7 6 6 6 8 10 11 11 13
10 11 15 16 16 18 18 19 21 23 23 25 25 25 25 26 25 24 22 23 19 16 14 14 14 10 10 9 6 7 7 7 7 7 7 7 7 7 7 10 8 9 9 12
12 13 15 16 15 14 17 19 21 22 23 22 24 25 25 25 25 24 20 17 17 15 14 13 15 12 9 6 5 3 5 5 6 5 7 8 8 6 9 8 7 9 10 13
12 14 14 14 13 14 17 19 20 20 21 21 23 24 25 25 25 24 21 14 12 12 16 15 12 9 6 4 5 3 4 5 6 6 7 8 8 8 10 6 9 11 11 13
13 13 13 13 14 16 17 18 18 19 21 21 22 24 25 26 25 23 19 13 11 13 16 18 12 7 4 4 5 5 5 7 7 7 8 8 8 9 8 8 10 11 11 12
11 11 12 13 16 18 18 18 18 19 20 21 22 24 25 24 24 21 19 13 13 14 11 11 10 9 8 6 4 4 6 7 6 6 7 8 7 8 7 10 10 10 10 11
10 9 11 15 16 17 18 17 18 19 20 21 22 24 23 22 19 18 17 17 16 17 14 11 12 13 12 4 2 3 4 5 5 6 8 8 8 7 9 10 9 9 9 10
8 8 11 15 16 16 18 20 20 18 18 20 21 22 21 19 18 16 16 20 22 22 17 14 12 12 8 3 1 2 3 4 5 6 7 8 8 9 10 10 9 8 9 10
8 10 11 14 15 14 16 18 19 18 18 18 20 20 19 18 17 18 17 18 21 20 16 15 14 9 3 2 2 3 4 2 1 5 10 11 11 11 10 10 9 9 9 8
8 10 11 12 12 12 13 13 13 15 16 16 17 19 18 16 17 17 16 18 17 17 16 13 10 5 3 3 2 3 6 5 6 8 9 9 10 9 9 9 9 8 8 7
8 10 11 11 11 11 12 13 14 15 16 16 17 18 17 16 17 17 17 16 15 15 13 12 11 9 7 5 4 5 6 8 7 6 7 7 7 7 8 8 7 6 6 7
Wind_Direction
237 239 229 265 282 300 183 225 219 120 95 14 5 6 0 2 3 359 353 349 345 340 336 334 329 322 322 331 322 327 331 322 298 279 255 236 228 225 236 238 249 259 259 356
274 273 247 272 292 136 55 24 60 88 66 11 1 0 353 350 349 346 336 334 329 326 319 309 301 302 312 311 306 319 328 323 317 304 278 253 232 215 217 218 221 220 200 177
276 338 333 340 349 28 71 47 32 44 19 356 348 349 342 334 333 326 317 308 300 295 290 290 295 302 308 302 314 316 306 305 313 319 317 292 256 222 216 207 203 210 197 181
316 4 298 146 73 87 93 67 56 45 10 332 288 268 259 252 255 265 260 264 274 279 278 280 288 292 294 296 301 299 297 297 310 322 325 320 266 242 232 215 205 206 197 192
27 324 134 84 20 10 10 57 51 331 299 286 278 267 262 250 244 250 254 262 270 272 274 278 282 290 291 280 285 289 292 293 303 317 319 322 289 252 238 213 213 205 194 190
38 333 3 352 331 323 320 223 314 293 296 301 307 300 298 285 269 271 273 276 274 275 279 276 271 269 274 270 276 277 281 290 292 290 291 298 296 266 224 213 215 212 194 191
9 283 72 334 332 345 34 308 311 296 286 286 282 282 292 293 287 278 276 276 276 277 274 268 263 261 271 271 265 263 265 281 279 271 265 265 267 261 236 221 222 218 201 186
358 5 348 345 15 48 277 277 283 289 291 293 289 291 291 289 287 287 283 281 278 274 271 269 261 258 268 270 268 267 270 280 277 266 260 257 256 271 261 231 222 214 206 182
70 313 274 294 260 248 263 280 290 295 299 301 299 298 297 295 294 292 287 280 275 273 273 269 258 250 257 261 264 267 270 275 280 279 273 259 246 244 265 251 221 205 196 185
173 243 270 265 257 270 294 303 310 313 310 307 300 298 298 297 295 294 292 287 288 286 281 273 260 251 249 252 253 259 260 265 273 273 274 272 261 240 227 241 214 206 191 189
290 285 297 280 288 308 313 313 315 310 304 300 297 295 295 295 295 295 293 296 295 290 283 273 268 258 244 245 249 253 255 259 261 260 269 272 267 256 234 206 216 197 198 199
277 280 284 296 302 304 313 311 303 302 303 303 302 299 299 299 298 297 297 297 293 294 290 282 278 263 246 248 261 263 262 263 257 252 257 261 263 268 238 216 222 216 257 242
258 281 286 291 295 295 304 306 305 303 299 302 305 303 302 302 301 302 305 304 301 300 295 290 288 285 284 276 264 250 242 252 249 240 242 250 252 250 271 246 230 254 253 223
296 304 307 296 299 301 301 300 304 303 303 304 304 303 303 305 306 306 305 301 297 294 290 286 283 280 277 274 259 248 250 241 231 231 233 234 238 238 244 275 276 242 202 180
301 310 307 306 302 302 308 310 312 311 311 310 308 306 312 312 308 304 302 299 296 291 286 282 278 271 261 274 270 250 238 223 219 222 231 230 239 242 225 233 243 217 133 128
303 306 303 305 303 309 316 314 314 313 315 312 310 311 312 310 308 306 305 308 306 304 302 298 284 272 258 265 276 243 218 203 198 212 233 234 238 242 240 253 275 222 172 163
318 318 314 311 310 313 315 313 315 315 314 312 311 313 311 309 309 309 311 312 312 310 313 316 308 288 264 266 261 232 211 205 201 215 223 225 227 235 243 251 249 194 177 167
301 299 303 304 305 311 314 315 316 315 313 313 313 311 311 311 310 308 308 313 316 317 315 314 312 290 272 269 255 228 220 214 216 212 218 222 222 218 238 264 221 175 175 169
306 302 299 300 303 305 309 314 316 315 313 315 313 313 312 311 313 314 309 308 310 317 318 317 314 320 305 274 279 225 200 215 220 207 220 224 220 232 266 249 182 175 163 161
303 301 300 301 302 306 309 313 315 314 315 315 314 314 314 315 318 318 315 298 293 305 314 321 316 303 299 263 247 242 232 231 229 224 228 223 217 238 262 208 167 163 160 164
299 303 306 306 308 311 315 317 317 316 314 316 317 315 316 316 318 317 316 309 305 301 310 319 322 314 302 267 247 237 238 239 236 229 220 214 218 248 248 183 167 161 158 162
305 309 307 308 312 319 323 321 319 318 316 317 318 317 318 319 319 317 315 317 317 305 295 300 310 311 303 283 257 241 239 237 233 223 208 201 221 249 216 170 163 157 155 159
308 308 312 315 320 321 320 320 321 321 318 319 319 317 318 318 319 321 325 325 323 319 318 301 288 298 306 296 229 227 236 240 233 215 198 194 218 215 175 157 153 149 151 154
310 315 316 317 322 328 326 325 323 321 319 318 318 318 322 323 323 326 324 321 325 325 327 322 308 309 321 352 356 213 208 213 211 210 198 194 185 162 152 147 143 145 152 152
319 322 326 327 329 327 322 322 322 324 326 327 324 325 327 329 329 327 327 328 329 327 331 336 341 344 6 29 359 322 312 328 92 134 133 136 139 141 143 145 148 151 153 155
329 332 325 319 317 317 320 321 321 323 327 325 326 329 331 334 332 333 332 333 333 332 337 345 360 27 96 104 77 328 333 3 72 91 103 112 122 127 134 142 147 149 147 149
334 332 325 324 325 322 319 320 321 323 326 324 325 329 334 334 335 337 335 336 337 341 348 2 21 41 47 42 36 33 37 42 54 88 111 122 127 129 137 142 144 144 146 151
Height
1510 1508 1507 1507 1505 1505 1511 1512 1517 1517 1522 1528 1527 1525 1522 1518 1513 1508 1504 1500 1498 1495 1492 1490 1488 1485 1480 1475 1473 1466 1461 1458 1456 1455 1454 1455 1456 1455 1454 1452 1450 1450 1447 1445
1510 1504 1506 1507 1503 1505 1510 1517 1517 1522 1528 1532 1529 1524 1520 1516 1513 1509 1504 1497 1494 1490 1488 1486 1484 1480 1473 1468 1466 1460 1456 1454 1450 1446 1445 1445 1446 1448 1448 1447 1447 1446 1445 1444
1518 1511 1508 1515 1518 1515 1523 1529 1530 1531 1537 1534 1527 1524 1520 1515 1513 1509 1503 1500 1495 1491 1490 1485 1479 1474 1467 1462 1458 1455 1453 1449 1445 1441 1438 1437 1438 1439 1441 1442 1442 1442 1442 1442
1521 1517 1526 1532 1524 1523 1528 1532 1533 1534 1534 1534 1530 1521 1515 1509 1505 1503 1499 1496 1491 1486 1483 1479 1474 1467 1461 1458 1456 1452 1449 1444 1439 1435 1432 1430 1430 1431 1434 1436 1436 1437 1438 1439
1524 1525 1522 1526 1527 1528 1528 1533 1533 1533 1528 1521 1519 1514 1508 1503 1499 1494 1490 1487 1482 1478 1474 1469 1464 1460 1454 1452 1450 1448 1443 1438 1434 1430 1427 1424 1423 1424 1425 1427 1429 1431 1433 1435
1524 1528 1532 1541 1533 1527 1528 1530 1532 1529 1524 1519 1514 1510 1502 1499 1495 1490 1485 1479 1474 1470 1465 1460 1456 1454 1450 1445 1442 1439 1436 1433 1430 1427 1424 1420 1418 1418 1418 1419 1421 1424 1425 1429
1529 1528 1538 1539 1532 1524 1536 1540 1530 1525 1520 1514 1510 1505 1496 1490 1486 1480 1476 1470 1465 1460 1455 1451 1448 1445 1439 1434 1431 1430 1429 1427 1425 1423 1420 1416 1413 1412 1411 1412 1414 1417 1419 1422
1538 1538 1547 1538 1535 1540 1543 1532 1525 1519 1515 1509 1503 1497 1490 1483 1476 1470 1465 1459 1455 1450 1443 1439 1436 1434 1427 1423 1422 1421 1420 1418 1417 1415 1412 1410 1407 1405 1405 1404 1406 1409 1414 1416
1544 1548 1544 1540 1538 1534 1530 1525 1520 1515 1509 1503 1496 1490 1483 1476 1469 1462 1456 1449 1444 1438 1431 1427 1425 1423 1417 1414 1414 1411 1409 1407 1406 1405 1403 1401 1399 1398 1396 1397 1396 1400 1405 1408
1544 1543 1539 1536 1532 1529 1526 1521 1515 1509 1503 1497 1490 1482 1475 1467 1460 1452 1445 1438 1432 1426 1418 1413 1411 1409 1406 1403 1402 1400 1398 1397 1396 1395 1393 1391 1390 1389 1389 1391 1391 1393 1398 1401
1544 1540 1536 1531 1529 1525 1520 1515 1509 1502 1496 1490 1483 1475 1467 1459 1450 1441 1433 1427 1420 1413 1406 1400 1397 1394 1392 1391 1390 1389 1388 1387 1386 1386 1385 1382 1381 1380 1379 1381 1384 1387 1392 1397
1545 1538 1535 1528 1523 1519 1514 1508 1501 1494 1487 1481 1476 1467 1458 1449 1441 1431 1422 1414 1407 1400 1392 1386 1382 1379 1377 1376 1377 1377 1377 1377 1376 1377 1376 1375 1374 1373 1372 1373 1374 1378 1386 1392
1540 1536 1530 1524 1518 1514 1509 1502 1496 1490 1482 1474 1466 1458 1448 1437 1428 1420 1411 1403 1394 1386 1378 1372 1368 1365 1362 1361 1361 1361 1363 1365 1365 1367 1368 1367 1366 1365 1365 1365 1365 1373 1376 1381
1536 1530 1523 1518 1513 1508 1502 1496 1490 1484 1476 1468 1457 1447 1438 1428 1418 1409 1399 1389 1381 1372 1364 1358 1353 1349 1347 1346 1346 1346 1350 1353 1355 1358 1360 1360 1359 1359 1358 1357 1359 1363 1366 1374
1531 1527 1521 1515 1508 1502 1495 1489 1482 1475 1467 1458 1450 1440 1429 1418 1407 1396 1387 1378 1368 1359 1351 1344 1338 1334 1333 1332 1332 1333 1337 1343 1345 1349 1351 1352 1352 1352 1353 1354 1358 1356 1360 1369
1527 1521 1516 1510 1504 1497 1491 1483 1475 1466 1458 1449 1439 1430 1420 1409 1398 1387 1379 1370 1358 1348 1339 1332 1327 1322 1321 1322 1322 1323 1328 1333 1337 1339 1342 1344 1346 1346 1345 1346 1345 1350 1357 1364
1521 1515 1509 1503 1498 1492 1486 1479 1471 1461 1451 1441 1431 1421 1410 1399 1389 1380 1370 1361 1352 1343 1334 1326 1319 1315 1314 1314 1316 1318 1321 1325 1329 1333 1336 1339 1340 1341 1341 1342 1345 1345 1353 1362
1520 1514 1508 1502 1495 1487 1480 1473 1465 1455 1445 1435 1425 1413 1402 1391 1381 1371 1363 1354 1344 1337 1330 1323 1317 1312 1311 1311 1312 1313 1316 1318 1322 1328 1331 1332 1335 1339 1341 1342 1341 1344 1351 1360
1516 1511 1505 1499 1492 1485 1477 1468 1458 1448 1439 1430 1419 1407 1397 1385 1374 1365 1356 1349 1341 1331 1324 1319 1315 1311 1309 1308 1308 1309 1310 1313 1316 1321 1325 1329 1331 1333 1336 1336 1338 1341 1348 1356
1512 1506 1500 1493 1486 1480 1471 1462 1451 1442 1433 1425 1414 1403 1391 1379 1369 1360 1351 1344 1338 1331 1324 1318 1313 1310 1307 1305 1306 1307 1309 1311 1313 1318 1320 1324 1327 1330 1331 1334 1337 1341 1348 1354
1507 1500 1494 1489 1481 1473 1465 1455 1445 1436 1428 1420 1410 1398 1386 1374 1365 1356 1347 1339 1335 1328 1321 1316 1313 1311 1309 1306 1306 1307 1309 1310 1312 1315 1317 1320 1324 1326 1328 1333 1337 1342 1347 1353
1502 1496 1491 1484 1475 1466 1459 1451 1442 1433 1425 1416 1406 1395 1383 1371 1361 1352 1345 1338 1329 1322 1315 1311 1309 1308 1308 1307 1306 1306 1308 1309 1310 1312 1314 1318 1321 1322 1326 1331 1337 1342 1347 1354
1499 1493 1487 1479 1470 1461 1453 1445 1438 1430 1421 1412 1402 1392 1381 1369 1361 1352 1343 1335 1326 1318 1312 1306 1302 1302 1304 1306 1307 1307 1307 1308 1309 1311 1313 1315 1317 1320 1325 1331 1336 1342 1349 1355
1494 1488 1482 1475 1466 1458 1450 1442 1434 1426 1419 1409 1400 1391 1381 1369 1359 1352 1342 1333 1325 1318 1312 1307 1303 1302 1302 1304 1305 1305 1306 1306 1306 1306 1307 1310 1315 1320 1326 1331 1337 1343 1350 1356
1491 1484 1477 1470 1462 1455 1447 1440 1432 1423 1415 1407 1398 1389 1381 1372 1361 1350 1340 1332 1325 1319 1314 1310 1306 1304 1304 1303 1303 1302 1301 1302 1303 1304 1307 1312 1318 1324 1330 1335 1340 1346 1352 1358
1487 1481 1475 1469 1462 1455 1448 1440 1431 1423 1415 1406 1397 1389 1380 1372 1361 1350 1342 1335 1330 1325 1319 1314 1310 1307 1307 1308 1309 1309 1309 1310 1312 1314 1317 1321 1326 1330 1335 1340 1345 1350 1355 1360
1483 1478 1472 1466 1460 1454 1448 1440 1432 1423 1415 1407 1399 1390 1382 1372 1363 1355 1348 1342 1336 1331 1328 1324 1322 1321 1319 1320 1321 1321 1321 1320 1321 1323 1326 1330 1333 1337 1341 1345 1350 1354 1358 1361